Wind_Speed
16 18 19 20 21 22 22 21 20 19 18 18 18 18 18 21 23 23 21 19 18 17 17 18 18 16 15 16 17 19 20 20 20 20 20 21 23 25 27 28 29 29 28 27 27 28 28 27 27 27 27 28 28 29 29 29 28 28 28 27 27 27 27 27 26 27 27 27 27 26 26 27 27 26 25 25 25 24 24 24 23 23 23 23 22
16 19 21 21 22 23 22 21 20 18 18 17 17 16 17 20 22 21 19 17 16 17 18 18 17 16 16 17 18 19 21 21 21 20 21 23 25 27 28 29 29 29 28 28 29 29 29 28 28 27 27 27 28 28 28 28 28 27 28 28 28 28 28 28 27 27 27 27 28 27 27 27 27 27 25 24 25 25 24 24 23 23 23 23 24
17 19 22 22 23 23 22 20 19 17 16 16 15 14 14 17 19 19 17 15 15 18 18 18 17 16 16 17 19 21 22 22 21 21 22 25 27 28 29 29 29 29 29 29 30 30 30 29 29 28 27 27 27 27 27 27 28 28 28 29 29 30 29 29 28 28 27 27 27 27 27 27 27 27 26 25 24 24 25 25 24 23 23 23 23
18 20 22 22 22 22 20 18 16 14 14 15 14 13 14 15 17 17 15 15 16 17 17 17 16 16 17 18 21 22 22 22 22 23 25 27 28 30 30 30 30 29 29 30 30 30 30 29 29 28 27 27 27 27 27 27 28 28 29 30 30 31 31 30 29 28 28 27 27 26 26 26 26 26 26 26 25 24 24 25 25 24 23 23 23
18 20 21 21 20 19 17 15 14 14 14 14 14 14 15 15 16 17 16 16 17 17 17 17 17 17 18 20 22 23 23 23 23 25 27 28 30 31 30 30 30 30 30 30 30 30 29 29 29 28 27 27 27 27 27 28 28 29 30 31 31 32 31 31 30 29 28 28 27 27 26 26 26 25 25 26 26 25 23 24 25 24 24 23 23
19 20 19 19 18 17 16 15 14 15 15 15 14 14 15 16 17 17 17 17 17 17 17 18 18 18 19 22 23 23 23 24 25 27 28 30 31 31 31 31 31 30 30 30 30 30 29 29 29 29 28 28 27 27 28 28 29 30 30 31 31 31 31 31 30 29 28 28 27 27 26 26 26 26 25 25 25 26 25 24 24 24 25 24 24
21 21 19 18 17 16 15 15 15 16 16 15 15 15 16 16 16 17 17 17 17 18 18 18 19 19 21 23 24 24 24 25 27 28 30 31 32 32 32 31 31 31 31 30 30 30 30 30 30 29 28 28 27 28 28 29 30 30 31 31 31 31 31 31 30 30 29 28 27 27 26 26 26 26 26 25 24 24 25 25 25 25 25 25 25
23 22 20 18 17 16 15 15 16 16 16 15 14 14 14 14 15 17 17 17 17 18 19 19 19 21 22 23 24 24 25 27 28 30 31 32 32 32 32 31 31 31 31 31 31 31 30 30 30 29 28 28 28 28 29 30 31 31 31 31 31 31 31 30 30 30 30 29 28 28 27 26 26 26 26 26 25 24 24 24 24 24 24 25 25
25 22 21 19 17 16 15 14 15 15 15 14 13 13 12 12 14 16 16 16 17 18 19 19 20 22 23 24 25 26 27 28 29 30 31 32 32 32 32 31 31 32 32 32 32 31 31 30 29 28 28 28 29 30 31 31 31 31 32 32 32 31 31 31 31 30 30 30 29 29 28 27 27 27 27 27 27 27 26 25 25 24 24 24 25
25 23 21 19 17 17 17 15 14 15 14 13 13 12 12 13 14 14 14 15 17 18 18 19 21 22 23 24 26 27 28 29 30 31 32 32 32 32 31 31 32 32 32 33 32 31 30 29 28 28 28 28 29 31 32 32 32 32 33 34 33 33 32 31 31 31 31 30 30 30 29 29 28 28 28 28 28 28 27 27 26 26 25 25 25
26 24 21 19 17 18 19 18 17 16 15 14 13 12 12 13 13 12 13 15 16 17 18 20 21 22 24 25 27 28 29 30 31 32 32 33 32 32 31 32 32 32 32 32 31 30 29 28 28 28 28 29 30 32 32 32 32 32 33 34 34 33 33 33 32 32 32 31 31 30 30 30 30 29 29 29 29 29 28 28 27 27 26 26 25
26 24 22 19 18 19 20 21 20 18 16 14 13 13 13 13 12 12 14 15 16 17 19 21 22 23 25 27 28 29 30 31 32 33 33 32 32 31 32 32 32 31 31 30 29 29 28 27 27 28 29 30 31 32 32 32 32 33 33 33 33 34 34 33 33 32 32 32 32 32 32 31 31 31 30 30 30 30 30 29 29 28 28 27 26
26 25 22 20 20 20 21 21 20 18 16 15 15 15 14 13 13 13 14 15 17 19 20 22 24 25 27 28 29 30 32 33 33 33 32 31 31 32 32 32 31 30 29 28 28 28 27 27 28 29 30 31 32 32 32 32 32 33 33 33 33 34 34 33 32 32 32 32 32 32 32 32 32 31 31 30 30 30 30 30 30 30 29 29 28
27 24 22 20 21 21 21 21 20 18 17 16 16 16 15 15 15 16 16 17 18 20 21 24 26 27 28 29 30 31 32 33 32 31 31 31 31 31 31 30 30 28 27 27 27 27 27 28 28 30 31 32 32 32 32 32 32 32 32 32 33 33 33 32 32 32 32 33 33 33 33 33 33 32 32 32 31 31 30 30 30 30 30 30 29
27 24 22 21 21 21 21 20 19 17 17 17 17 17 16 17 18 18 19 20 21 22 24 26 27 27 27 28 30 31 32 32 31 30 30 30 30 29 29 29 28 26 26 26 27 27 28 29 30 31 32 32 32 32 32 32 32 32 31 32 32 32 32 33 33 34 34 34 35 35 35 35 34 34 34 33 33 32 32 31 30 30 30 30 30
27 24 22 22 22 22 21 19 17 17 17 19 19 19 19 19 19 20 21 22 23 25 26 27 26 26 26 28 30 31 31 30 30 29 29 29 28 28 28 27 26 25 26 26 27 27 29 30 31 31 32 32 32 32 32 32 31 31 31 32 32 33 33 34 34 35 36 36 36 36 36 35 35 35 34 34 33 33 33 32 32 31 30 30 30
26 24 23 24 24 23 21 19 18 18 19 21 22 23 22 20 18 19 22 24 25 26 27 26 26 26 27 29 29 29 30 29 28 28 28 28 28 28 27 25 25 25 26 26 27 28 30 31 31 31 31 31 31 31 31 31 31 31 31 32 33 34 35 36 37 37 37 37 37 37 36 35 35 35 34 33 33 33 33 32 32 31 31 30 29
26 24 24 25 26 24 22 20 18 18 17 18 19 21 21 20 19 21 24 25 25 26 27 27 27 28 29 29 29 29 29 28 27 27 27 28 27 27 25 25 25 26 27 27 28 29 30 30 30 31 31 31 31 30 30 30 31 32 33 34 35 36 37 38 38 39 39 38 38 37 36 36 35 35 35 34 34 33 33 32 31 31 30 30 29
26 26 26 27 26 24 23 20 18 17 15 14 15 17 18 19 21 22 24 24 24 25 27 28 29 29 29 29 28 28 28 27 27 27 27 27 26 25 25 25 26 26 27 27 28 29 29 29 30 30 31 31 30 30 31 32 33 34 35 36 37 38 39 39 40 40 40 39 39 38 37 37 37 37 36 36 35 34 33 32 31 30 30 29 28
28 30 29 27 25 25 24 22 21 20 18 16 16 16 17 19 21 21 22 22 23 25 27 28 29 29 29 28 28 28 28 27 27 27 27 26 26 25 25 25 26 26 27 28 28 29 29 29 30 30 30 30 30 31 32 33 34 35 37 38 38 39 40 40 39 39 39 38 38 37 37 38 38 37 37 36 34 33 32 31 30 29 29 28 27
33 34 31 27 25 25 24 23 21 21 21 20 20 20 20 22 22 21 21 22 24 26 27 27 28 28 28 28 28 28 28 27 27 26 26 25 25 24 25 25 25 26 27 28 28 28 29 29 30 29 29 29 30 32 33 34 35 36 38 39 39 39 39 39 38 37 37 36 36 37 37 38 37 37 36 34 32 31 30 29 28 27 27 26 25
35 34 31 28 26 25 24 22 21 20 20 20 21 22 22 24 24 23 22 23 25 26 26 26 27 28 28 27 27 27 27 27 26 25 25 25 24 24 24 24 25 26 27 27 28 28 29 29 28 28 29 30 31 32 34 35 36 37 38 38 38 38 38 38 37 36 36 36 36 37 37 37 36 35 33 31 30 28 27 25 25 24 24 23 22
35 34 31 29 27 27 25 24 23 22 21 21 21 22 23 24 24 23 22 23 24 25 26 27 28 28 27 26 26 27 28 27 26 25 25 24 24 24 24 24 25 26 26 27 27 28 28 27 27 28 29 31 32 33 34 35 36 37 37 37 37 36 36 36 36 36 36 36 37 36 36 35 33 31 29 28 26 25 24 23 22 21 20 20 19
34 33 31 30 28 27 27 27 25 23 22 22 22 23 24 24 24 23 23 23 24 25 27 28 29 27 26 26 27 28 28 26 25 25 24 23 23 23 23 24 25 26 26 27 27 27 27 27 27 29 30 31 33 34 35 36 36 37 36 36 35 35 35 35 35 35 36 36 36 35 34 32 30 28 26 25 24 23 22 21 20 19 18 17 17
30 29 29 30 29 29 29 29 26 24 23 23 23 24 24 24 24 25 25 26 26 27 28 29 28 27 26 27 28 28 27 26 25 24 23 22 22 23 23 24 25 25 26 26 26 26 26 27 28 29 31 32 33 34 35 36 36 36 35 35 34 34 34 34 35 35 35 34 33 32 30 28 27 26 25 24 23 22 21 19 18 17 16 16 15
24 23 26 29 31 31 30 28 25 24 24 24 24 25 25 25 26 26 27 28 28 28 29 29 28 27 27 28 28 27 26 25 24 23 22 22 22 23 23 24 24 25 26 26 26 26 26 28 29 30 31 32 33 34 35 35 34 34 34 33 33 33 33 34 34 34 33 31 30 28 27 26 25 24 24 23 22 20 19 18 17 16 15 14 14
22 22 25 29 31 31 28 26 25 25 25 25 26 26 26 27 28 29 29 30 29 29 29 29 28 28 28 28 27 26 25 24 23 22 21 22 22 23 23 24 25 25 25 25 26 26 27 28 30 31 32 32 33 34 34 33 33 33 32 32 32 33 33 33 33 32 30 29 28 26 26 25 24 23 23 22 20 19 18 16 16 15 14 13 13
22 23 25 27 27 26 26 26 26 26 27 27 27 27 28 29 30 30 31 31 30 30 30 29 28 28 28 28 26 25 24 23 22 21 21 22 22 23 23 24 25 26 25 25 26 27 28 29 30 31 32 33 33 33 33 32 32 31 31 32 32 32 33 32 31 30 28 27 26 25 25 24 23 23 22 21 19 17 16 15 14 13 13 12 12
23 24 24 24 24 25 26 27 27 27 27 28 28 29 30 30 31 32 32 32 32 31 30 28 28 28 27 26 25 24 23 22 21 21 22 22 22 23 24 25 25 26 26 26 27 28 29 30 31 31 32 32 32 32 32 31 30 30 31 31 32 32 31 30 29 28 27 26 25 25 24 24 23 22 21 19 17 15 14 13 12 11 11 11 10
25 25 24 24 25 27 28 28 28 28 28 29 30 30 31 31 32 32 32 32 32 31 29 27 27 27 26 24 23 23 22 21 21 21 22 22 22 23 24 25 25 26 26 27 28 29 30 30 31 31 32 32 32 31 31 30 30 30 30 31 32 31 30 29 28 27 26 25 24 24 24 23 22 21 20 18 16 14 13 12 11 10 10 10 10
26 25 25 26 27 28 29 29 29 29 29 30 30 31 31 32 32 32 32 32 31 30 28 27 26 26 24 23 22 22 21 21 22 22 22 22 23 24 24 25 26 26 27 28 29 30 30 31 31 31 32 32 31 31 30 30 30 30 30 31 31 30 29 28 27 27 25 24 23 23 23 23 22 20 19 18 16 14 12 12 11 11 10 10 10
26 26 27 28 28 28 28 28 29 30 30 30 31 31 31 31 31 31 32 32 30 29 27 26 25 24 23 22 22 22 22 22 22 23 23 23 24 24 25 26 26 27 27 29 30 30 31 31 32 32 32 32 31 31 30 30 29 30 30 31 30 29 28 27 27 26 25 23 22 22 22 22 21 20 18 17 16 14 13 12 12 11 11 11 11
26 26 27 27 28 28 28 29 29 30 30 30 31 31 30 31 31 31 31 30 29 28 26 25 24 23 23 22 22 22 22 23 23 23 23 24 24 25 26 26 27 27 28 29 30 30 31 31 32 32 32 32 31 30 30 29 30 30 30 30 30 29 28 27 27 26 24 22 22 21 21 21 20 19 18 16 15 14 13 13 12 12 11 11 11
25 26 26 27 27 28 28 29 29 30 30 30 30 30 30 30 30 30 29 28 27 26 24 24 24 23 23 23 23 23 23 23 24 24 24 25 25 26 26 27 27 28 28 29 30 31 31 32 32 32 32 32 31 30 30 30 30 30 31 30 29 29 28 27 27 25 24 22 21 21 21 21 20 19 17 16 15 14 13 13 12 12 11 11 11
26 26 27 27 28 29 29 30 30 30 30 30 30 30 30 29 29 28 27 26 25 24 23 24 24 23 23 24 23 23 24 24 25 25 25 25 26 26 27 28 28 28 29 30 31 31 32 32 33 33 33 32 31 30 30 30 31 31 31 30 30 29 28 27 26 24 23 22 21 20 20 20 19 18 17 16 15 14 13 12 12 12 11 11 11
27 27 28 28 29 30 30 30 30 30 30 30 29 29 28 27 27 26 25 25 24 24 24 24 24 24 24 24 24 24 25 25 26 26 26 26 27 27 28 28 29 29 30 31 31 31 32 32 33 33 33 32 31 31 31 31 31 31 31 31 30 29 28 27 25 24 22 21 21 20 20 19 19 18 17 16 16 15 14 14 13 13 13 12 12
28 29 30 30 31 31 31 31 30 30 29 29 28 27 27 26 26 26 25 25 25 24 24 25 25 25 25 24 24 25 26 26 26 27 27 27 28 28 29 29 30 30 31 31 32 32 32 33 33 33 33 32 31 31 31 31 31 32 32 31 31 30 28 27 25 23 22 21 21 20 20 19 18 17 16 15 15 14 14 14 14 14 14 14 14
30 31 31 32 32 32 32 31 30 30 29 29 28 27 26 27 28 28 27 26 26 25 26 26 26 25 25 25 25 26 26 27 27 27 28 29 29 29 30 30 31 31 32 32 32 33 33 33 33 33 33 32 32 32 31 31 32 32 32 32 30 29 27 26 24 23 22 21 21 20 20 19 18 17 16 15 15 14 14 13 13 13 14 14 15
32 32 32 33 33 33 32 32 31 31 31 30 29 28 27 28 29 29 27 27 27 27 27 27 27 26 26 25 26 26 27 27 27 28 29 30 30 30 31 31 32 32 33 33 33 33 33 33 33 33 33 32 32 32 32 31 32 32 32 31 30 28 26 25 23 22 21 21 20 20 19 19 18 17 16 16 16 15 15 14 14 13 13 14 14
33 33 34 34 34 34 33 33 33 33 33 33 32 30 29 29 30 29 28 28 28 28 28 28 28 27 27 26 27 27 27 28 28 29 30 31 31 31 32 33 33 33 33 33 34 34 33 33 33 33 33 32 33 33 32 32 32 32 31 30 28 26 25 24 23 22 21 21 21 20 19 18 18 17 17 17 16 16 16 16 15 15 15 14 14
34 35 35 35 35 36 35 35 36 36 35 35 33 32 32 31 30 29 29 29 29 29 30 30 30 29 28 28 28 28 28 28 29 30 31 31 32 32 33 34 34 33 34 34 34 34 33 33 33 33 33 33 33 33 32 32 31 31 30 29 27 25 23 22 22 22 21 21 21 20 19 19 18 18 18 17 17 17 17 17 17 17 17 16 16
37 38 38 38 37 37 36 36 37 38 37 37 36 35 34 33 32 31 30 30 31 31 31 31 31 31 30 29 29 29 29 29 30 30 31 32 33 33 34 34 34 34 34 34 34 34 33 33 33 33 32 32 33 33 32 32 31 30 29 27 25 24 22 22 21 22 22 22 21 21 20 20 20 20 19 19 19 18 18 18 18 18 18 18 18
38 38 38 37 36 36 35 35 34 34 34 35 37 37 36 34 33 32 32 32 33 34 34 33 33 32 31 30 30 30 30 30 30 31 32 33 33 34 35 35 34 34 34 34 34 34 34 33 33 33 33 33 33 32 32 31 30 29 28 26 24 23 22 22 22 22 22 22 22 22 22 22 22 22 22 21 21 21 20 20 20 20 20 20 20
36 36 35 35 34 35 35 34 33 32 30 30 32 34 36 36 34 33 33 34 35 36 36 35 35 34 32 31 31 30 30 31 31 32 33 33 34 35 35 35 34 34 35 35 34 34 34 33 33 33 33 33 32 32 31 31 29 28 27 26 24 23 23 23 23 24 24 24 24 24 24 24 24 24 24 23 23 23 23 22 22 22 23 23 23
36 35 34 33 34 35 35 34 33 32 30 28 29 32 36 37 37 35 35 37 38 38 37 37 36 35 33 32 31 31 31 32 32 32 33 33 34 35 35 35 35 35 35 35 35 34 34 33 33 33 32 32 32 32 31 30 29 28 26 25 25 24 24 25 25 25 25 25 25 25 26 26 26 26 26 25 25 25 25 25 25 25 25 25 26
36 36 35 35 35 36 35 33 32 32 30 29 29 32 35 38 39 37 37 39 40 40 39 38 37 35 34 33 32 32 32 32 32 32 33 34 34 35 35 35 35 35 35 35 35 34 33 33 33 32 32 32 31 31 30 29 28 27 26 26 26 26 26 26 27 27 27 27 27 27 27 27 28 28 28 27 27 27 27 28 28 28 28 28 29
36 36 36 37 37 36 35 34 34 32 30 29 30 33 35 38 39 38 38 40 41 40 40 39 37 35 34 34 34 33 33 33 32 32 33 34 34 35 35 36 36 35 35 35 35 34 33 33 33 32 32 32 32 31 30 29 28 27 27 27 27 28 28 28 29 29 29 29 29 29 29 30 30 30 30 30 30 30 30 31 31 31 32 32 33
37 36 35 35 35 34 34 34 32 30 29 28 30 32 35 37 39 38 39 41 42 41 40 39 37 36 36 35 35 35 34 33 33 33 33 34 34 35 35 36 36 36 36 35 34 34 33 33 33 33 32 32 32 31 31 30 29 28 28 29 29 30 30 30 31 31 31 31 32 32 32 32 32 32 33 33 33 33 34 34 34 35 36 36 36
35 34 34 33 32 32 32 31 29 28 27 27 29 31 35 39 41 41 41 42 43 42 40 38 37 37 37 36 35 34 33 32 32 32 33 34 34 35 35 36 36 36 36 35 34 34 34 34 34 33 33 33 33 32 31 31 30 30 30 30 31 32 32 32 33 33 34 34 35 35 35 35 35 35 35 36 36 36 37 37 37 38 39 39 40
33 33 32 32 31 30 29 28 26 25 25 26 29 34 38 41 44 44 44 43 42 40 38 38 38 38 37 36 34 32 31 31 31 32 33 34 35 35 36 36 36 36 35 35 35 35 35 34 34 34 33 33 33 33 32 32 31 31 32 32 33 33 34 35 35 36 37 37 38 38 38 38 38 39 39 39 40 40 40 40 41 41 42 42 43
30 29 28 27 27 27 26 25 24 24 25 27 30 34 37 41 43 43 42 41 40 39 39 39 38 37 37 36 33 31 30 31 32 33 34 35 35 35 36 36 36 35 35 35 35 35 35 35 35 34 34 34 34 34 34 33 33 34 34 35 36 36 37 38 38 39 39 40 40 41 41 42 42 42 43 43 44 44 44 44 45 45 46 46 47
Wind_Direction
211 213 214 211 207 208 212 218 226 235 244 247 246 243 229 213 214 220 220 221 226 234 238 238 240 246 255 264 273 279 282 283 285 287 291 295 299 300 302 303 306 308 310 311 312 314 315 315 315 316 316 317 318 318 318 317 316 316 317 319 320 321 320 319 317 314 312 312 310 309 308 307 307 307 307 307 306 306 307 308 307 305 302 300 296
209 207 205 206 209 212 217 223 231 240 247 247 242 236 227 217 215 214 213 220 232 238 236 234 237 246 255 266 275 279 281 282 283 286 290 293 295 298 300 304 308 312 314 315 316 316 316 316 316 317 318 318 318 318 318 317 316 317 319 320 322 322 321 320 318 316 314 313 312 310 309 308 307 307 307 307 306 306 307 306 306 305 304 301 299
207 202 199 205 214 219 223 230 236 240 242 238 230 224 221 216 210 207 213 230 239 235 232 232 238 248 259 270 276 278 279 280 282 285 288 291 293 297 301 306 312 316 317 317 317 316 316 316 317 318 319 319 318 317 316 316 317 318 320 321 321 321 321 320 319 317 315 313 312 310 309 308 307 307 307 307 306 306 306 305 305 305 305 302 300
203 203 206 213 220 224 229 233 235 233 228 223 216 210 209 208 207 215 232 245 241 233 232 235 242 252 263 271 275 276 277 278 281 284 287 291 294 298 303 310 316 318 318 317 317 316 316 316 317 318 318 318 317 316 316 316 318 319 320 321 321 320 320 319 318 317 315 313 311 309 308 306 306 306 307 306 306 305 304 304 304 305 305 303 301
209 211 214 219 223 225 228 231 228 220 216 216 214 211 211 214 220 231 240 241 237 235 235 238 246 255 264 270 273 274 276 278 280 283 288 292 296 300 307 314 318 318 317 317 317 316 316 317 317 318 317 317 317 316 316 317 318 319 320 320 320 320 320 319 318 317 315 313 311 309 307 306 305 305 305 305 304 303 301 300 301 302 302 302 301
217 218 218 221 223 224 226 227 223 216 214 217 219 221 224 227 231 235 235 232 231 232 235 241 249 257 264 269 271 272 275 277 280 285 290 293 297 303 311 316 318 317 316 317 317 318 317 317 317 317 316 316 316 316 317 318 318 319 319 319 320 320 320 319 318 316 314 312 310 308 307 306 305 305 305 305 305 305 304 303 302 302 302 302 301
221 221 220 221 222 224 225 225 223 219 217 218 220 224 228 229 231 230 228 225 224 229 236 244 252 259 265 268 269 271 274 277 281 286 290 295 300 307 312 316 316 316 316 317 318 318 318 317 316 315 315 315 315 316 317 317 318 318 320 321 321 320 319 318 317 315 314 312 310 309 308 306 305 304 304 304 303 304 304 304 303 303 302 302 302
224 222 219 218 219 221 222 222 222 217 214 214 216 220 222 223 225 225 225 224 225 231 239 247 254 260 264 266 268 271 274 278 283 287 292 297 303 308 312 315 315 315 316 318 318 318 316 315 314 313 314 314 315 316 316 317 318 320 322 322 321 320 318 317 316 315 313 312 311 310 309 307 306 304 303 303 302 302 302 302 302 302 302 302 302
225 222 218 216 216 217 216 215 213 208 205 206 209 212 215 219 222 226 228 230 231 235 242 249 255 260 262 265 268 272 275 279 284 289 295 299 304 308 312 314 314 316 317 317 317 316 314 313 312 313 314 315 315 315 316 317 319 321 322 322 321 320 319 317 316 315 314 313 312 311 310 309 308 307 306 305 305 305 305 304 303 302 301 301 300
226 223 220 218 217 215 213 211 208 205 203 204 209 213 216 221 225 227 229 233 237 241 247 252 257 260 263 266 269 272 276 281 286 292 296 300 304 308 312 313 314 315 316 315 314 313 312 312 312 314 315 315 315 315 316 318 321 322 322 322 321 321 320 319 317 316 315 314 313 312 312 311 310 308 307 306 305 304 303 302 301 300 299 299 298
228 226 223 221 222 219 215 213 213 211 208 208 210 215 220 226 231 232 233 236 241 246 251 254 257 260 264 266 270 273 277 283 288 294 298 301 304 308 311 313 313 313 314 313 313 312 312 312 312 313 314 314 314 315 317 319 322 323 322 321 321 321 320 319 318 316 316 314 314 313 312 311 310 308 307 305 304 303 302 301 300 299 298 297 297
229 228 225 225 228 226 219 217 217 215 214 213 215 220 225 232 237 240 242 246 249 252 254 256 259 262 264 267 271 275 280 285 290 294 298 301 305 309 310 310 310 311 313 313 313 313 312 312 312 312 313 313 314 316 318 321 322 322 321 321 321 321 319 318 317 316 315 314 314 313 312 311 310 309 307 306 305 304 302 301 300 299 298 296 295
230 227 226 229 233 228 220 217 217 217 218 219 222 227 233 238 241 243 248 252 255 257 259 261 263 265 267 270 274 278 282 286 289 294 298 302 305 307 307 308 310 312 314 314 313 312 312 311 311 312 313 314 316 318 320 322 321 320 320 321 321 319 318 317 316 316 315 314 314 313 312 312 310 309 309 307 306 304 302 301 299 297 297 295 294
229 226 226 230 230 222 214 212 214 218 223 226 230 235 240 243 245 247 250 254 256 259 261 262 263 266 269 273 277 280 283 286 289 294 298 301 304 305 306 309 311 313 313 313 312 312 311 311 312 313 314 316 318 319 321 321 320 319 320 321 320 318 317 317 316 316 316 315 314 314 313 312 311 310 310 308 307 305 303 301 299 297 295 294 293
224 223 226 227 220 210 207 210 215 222 228 232 236 239 242 245 247 249 251 253 254 256 256 257 260 265 270 275 278 281 283 286 290 294 298 300 302 304 307 310 311 312 312 311 311 311 311 312 313 315 317 319 320 320 320 319 319 320 320 320 318 318 317 317 317 317 317 316 315 315 314 313 312 311 310 309 307 306 304 302 300 298 295 293 292
218 219 223 221 212 209 211 215 219 224 230 234 237 239 241 245 248 250 251 251 251 251 251 254 259 264 270 276 280 282 284 287 290 294 297 299 301 304 308 309 310 310 310 310 311 312 313 315 317 318 320 320 320 319 318 319 320 320 320 318 318 318 318 318 318 317 316 316 315 314 313 312 311 310 309 308 307 306 305 304 302 300 297 294 293
212 215 219 217 214 216 218 218 219 224 231 238 239 237 238 243 249 253 254 252 250 249 250 253 258 264 272 279 282 283 284 286 290 295 297 298 301 305 307 308 309 310 310 311 313 314 316 318 320 320 320 319 319 319 319 320 321 320 319 318 318 318 318 318 318 317 316 315 314 313 312 311 310 309 308 307 307 305 304 302 300 298 296 294 291
210 212 216 218 219 220 220 218 219 226 235 241 239 233 231 236 242 247 250 250 247 248 251 255 260 268 276 281 282 282 285 288 292 295 295 297 302 305 307 308 309 310 311 313 315 317 319 320 319 319 319 319 319 320 320 321 320 320 319 319 318 318 318 317 317 316 315 314 313 312 312 311 310 310 309 308 306 305 302 300 298 296 294 292 291
207 209 213 216 218 220 220 218 215 217 223 225 223 222 224 231 237 241 245 247 248 252 257 261 265 271 277 279 280 283 286 290 292 293 294 298 304 306 306 307 309 310 313 315 318 319 319 319 319 319 320 320 321 321 321 320 320 320 319 319 318 318 318 317 317 316 315 314 314 313 313 312 312 311 310 309 306 304 302 299 296 294 292 291 290
210 213 215 215 216 219 223 221 218 219 225 229 232 233 234 236 240 242 245 249 254 258 262 265 267 271 275 277 280 283 286 288 290 291 295 301 304 304 304 306 308 311 315 317 318 319 319 319 320 320 320 320 320 320 320 320 320 319 319 318 318 318 318 317 317 316 316 316 315 315 314 313 313 312 310 308 306 303 300 297 294 292 290 289 289
216 217 217 216 217 219 221 221 221 225 233 238 241 241 239 239 241 242 246 253 258 261 263 265 268 271 274 277 280 283 285 287 289 292 298 301 301 301 302 306 310 313 316 317 318 318 318 319 319 318 319 319 319 319 319 319 319 318 318 318 318 318 317 317 317 317 317 317 316 315 315 313 312 311 309 306 304 301 298 296 293 291 290 290 290
213 215 216 217 218 217 216 217 217 222 228 232 234 234 234 236 239 243 248 255 258 260 262 265 268 271 273 276 280 283 285 287 290 294 298 298 297 299 303 307 311 313 315 315 316 317 316 316 316 317 317 318 318 318 318 318 318 318 318 318 318 318 318 318 319 319 318 318 317 315 315 314 312 311 308 306 304 301 299 297 295 294 293 293 294
212 214 215 216 215 214 215 216 217 221 227 231 233 234 235 238 242 247 252 255 256 258 262 265 268 270 273 277 282 285 286 288 291 294 295 294 296 299 303 307 310 312 313 314 314 314 313 313 314 315 316 317 317 317 317 317 318 318 318 318 318 319 320 320 321 320 319 318 318 316 316 315 314 313 311 309 307 304 303 301 299 298 297 297 298
216 216 217 216 214 213 215 216 218 223 228 231 234 237 240 244 247 252 255 257 258 262 265 267 269 271 275 280 284 285 286 288 290 292 291 292 296 300 303 307 309 310 311 310 310 310 310 311 313 314 315 316 316 317 317 317 318 318 318 319 319 320 321 321 321 321 320 319 319 319 318 318 318 317 316 314 312 310 308 306 304 302 301 300 300
219 220 220 219 215 214 216 219 222 227 230 232 235 239 242 246 249 252 255 258 261 264 266 268 270 274 278 281 283 284 286 287 288 288 289 292 296 299 303 305 307 307 307 307 307 308 308 310 312 313 314 315 316 317 317 318 318 318 319 320 321 322 322 322 322 321 321 321 321 322 322 322 322 322 321 320 318 316 313 311 309 307 305 305 304
214 214 215 216 216 217 221 224 228 231 232 233 236 239 243 246 249 253 256 259 261 262 265 268 272 275 278 279 280 282 284 285 284 284 287 291 296 299 302 304 303 303 304 304 304 306 307 309 311 312 313 315 316 317 318 318 318 319 320 321 322 322 322 322 322 322 322 323 324 325 325 326 325 325 324 323 321 320 317 315 312 311 310 308 308
213 210 210 213 216 220 224 228 231 233 235 236 239 241 245 248 252 256 259 261 262 263 265 268 271 273 275 276 278 280 281 280 280 282 287 291 295 298 300 300 300 300 301 302 302 304 306 308 310 311 313 315 317 317 318 318 318 320 321 322 322 322 322 322 322 323 324 325 326 327 328 328 327 326 326 325 324 323 322 321 319 318 316 315 314
219 214 210 211 215 220 225 229 232 234 236 239 241 244 248 251 254 257 259 261 262 263 265 267 270 272 273 274 276 278 277 277 278 283 288 291 295 296 296 297 298 299 299 300 301 303 305 307 310 312 314 316 317 317 317 318 319 320 321 322 321 321 321 322 323 324 325 326 328 329 330 330 329 328 327 327 326 326 326 326 326 326 325 324 323
216 212 209 211 217 223 228 231 234 236 238 242 244 247 250 253 256 258 260 261 263 264 266 268 269 270 270 272 274 274 274 275 279 284 288 291 292 293 293 295 297 297 298 299 300 302 305 308 311 313 315 316 316 317 317 317 319 320 320 321 321 320 321 322 322 323 324 326 328 330 331 331 331 330 329 327 326 326 328 329 330 331 332 331 329
212 211 212 217 222 227 230 232 235 238 241 245 247 250 252 254 257 260 262 263 264 265 267 267 267 268 269 271 271 271 273 276 281 284 287 288 288 289 291 293 295 296 297 298 300 302 305 309 311 313 314 315 315 316 316 317 318 320 320 319 319 319 320 320 321 322 323 325 327 329 331 332 332 331 329 328 326 325 326 327 329 330 330 330 330
213 215 219 223 226 229 232 234 238 241 244 246 249 252 254 257 259 261 263 264 265 266 266 266 267 268 270 270 270 271 274 278 282 284 285 285 285 287 290 292 293 294 296 298 300 304 307 309 311 313 314 314 314 314 315 316 318 318 318 318 318 318 319 319 320 321 321 322 325 327 329 331 331 331 330 328 326 324 323 323 324 325 326 327 327
216 220 223 226 230 233 236 238 240 242 245 247 250 253 256 258 260 262 263 263 264 264 264 266 267 269 269 269 269 272 275 278 281 282 282 282 283 286 288 290 291 293 295 298 301 305 307 309 311 313 314 313 313 313 314 316 317 317 317 317 317 317 318 318 318 318 318 319 321 324 327 328 329 329 329 328 326 324 321 319 319 320 321 321 321
222 225 229 232 234 236 238 240 242 244 246 249 251 254 257 259 260 261 262 262 262 262 263 266 268 268 268 269 270 272 276 278 279 279 278 279 282 285 288 289 290 292 295 299 302 305 307 309 311 312 313 312 312 312 313 314 315 316 316 316 316 316 316 316 316 315 314 315 317 320 323 325 326 326 326 326 325 323 320 318 317 317 318 317 316
230 233 235 237 239 240 241 243 244 246 248 251 253 256 258 258 260 261 262 262 262 263 264 265 266 267 267 268 270 273 275 277 277 276 276 278 282 285 287 288 290 292 296 299 302 304 307 309 311 311 311 311 311 311 312 313 314 315 315 315 315 315 314 313 313 311 310 310 311 315 319 321 322 322 322 322 322 320 318 316 315 314 314 314 313
234 237 238 240 242 243 244 245 246 248 250 253 255 257 259 260 261 262 261 261 263 265 265 265 265 265 267 268 270 273 275 275 274 274 276 279 282 285 287 288 290 293 296 299 302 304 307 309 310 310 310 310 310 310 311 312 313 314 315 315 314 313 313 311 309 307 305 305 306 310 314 317 318 318 318 318 317 317 315 313 312 311 310 309 310
238 240 241 243 244 244 246 247 248 250 252 255 258 260 261 262 262 261 260 262 264 265 265 264 264 265 266 268 271 273 274 274 274 274 276 279 282 285 287 288 291 294 296 299 301 304 306 308 308 309 309 309 309 309 310 311 312 313 314 314 314 312 311 308 305 302 300 300 302 305 309 312 313 314 315 315 315 315 315 313 312 310 308 306 306
242 244 245 245 246 247 249 250 251 253 256 259 262 263 264 263 261 260 261 264 265 264 263 263 264 266 267 270 273 274 275 275 275 276 277 279 282 284 286 288 290 293 295 298 300 302 305 306 307 308 308 308 308 308 309 310 312 313 314 314 313 311 309 306 302 298 296 296 298 302 305 308 309 310 311 311 312 312 313 313 313 313 312 310 309
245 247 248 248 249 251 253 254 256 258 260 262 264 265 264 261 259 259 262 264 264 262 262 263 264 266 268 270 273 275 275 275 275 276 277 279 281 284 286 287 289 292 294 297 299 301 303 305 306 306 307 307 308 308 308 309 311 313 313 313 312 310 307 304 299 295 294 294 296 299 302 304 306 306 306 306 307 307 308 308 309 310 310 310 310
245 246 247 249 251 253 255 257 259 261 262 263 263 264 263 260 258 259 261 263 262 262 261 262 263 266 268 270 272 273 274 275 275 276 277 279 280 283 285 286 289 291 293 296 298 300 302 303 304 306 306 307 307 307 307 309 311 313 313 312 311 308 305 302 297 294 292 293 294 297 299 301 302 302 303 303 303 303 303 303 304 305 305 307 308
244 246 247 249 251 253 255 258 260 261 262 262 262 261 260 259 258 259 261 262 262 262 262 262 263 265 267 269 271 272 273 274 275 276 277 278 280 282 284 286 288 290 293 295 297 299 300 302 304 305 306 306 306 306 307 309 312 313 312 311 309 306 303 299 296 293 292 292 294 295 297 297 298 298 299 300 300 301 301 302 303 303 303 304 304
246 247 248 249 251 254 256 258 259 260 261 261 261 259 258 258 258 258 259 261 262 262 263 263 264 266 267 268 270 271 272 274 275 276 277 278 279 281 283 285 287 290 292 294 296 298 300 302 303 305 305 305 305 306 308 310 312 312 311 309 307 304 301 297 294 293 292 292 293 293 293 294 294 294 295 295 296 297 298 300 302 303 303 303 303
248 248 249 250 252 254 256 256 257 258 259 259 259 258 257 257 257 256 257 259 261 262 263 264 265 265 266 268 269 271 272 273 275 276 277 277 279 281 283 285 287 290 292 294 295 297 299 301 302 303 304 304 305 306 308 310 311 311 309 307 304 301 298 295 292 291 291 290 290 290 291 291 291 291 292 292 293 294 295 296 298 300 301 302 303
250 250 249 250 252 253 253 254 256 260 262 261 258 257 257 257 256 256 255 257 259 260 261 263 264 265 266 267 268 269 271 272 274 275 276 278 279 281 283 285 287 289 291 293 294 296 298 299 301 302 303 304 305 306 308 309 309 308 306 304 301 298 296 293 291 289 289 288 288 288 288 288 288 289 290 291 292 293 294 295 297 298 299 300 301
250 250 248 248 250 252 252 253 257 261 263 262 261 260 259 257 256 256 255 256 258 259 260 261 263 264 264 265 267 269 270 272 274 275 276 278 279 281 283 285 287 289 290 292 293 295 297 299 300 301 302 303 304 306 307 308 307 305 303 301 298 296 294 291 289 288 287 286 286 286 287 287 289 290 291 293 294 295 295 296 297 298 298 299 300
249 251 250 250 251 253 253 254 256 258 259 260 261 262 261 258 256 254 254 255 256 257 258 259 261 262 264 265 267 269 270 272 274 276 277 278 279 281 283 285 286 288 289 291 293 294 296 298 299 299 300 302 304 305 305 305 303 301 299 297 296 294 293 291 289 287 286 285 285 285 286 287 289 290 291 293 294 294 294 294 294 295 296 298 299
249 251 252 252 253 253 254 254 255 254 255 257 261 263 262 259 256 254 253 252 251 253 256 258 259 261 264 266 268 269 271 272 274 276 277 278 279 281 283 284 286 287 289 291 292 294 295 296 297 297 299 300 302 303 303 302 300 298 296 294 292 291 290 289 287 286 285 285 285 286 286 287 288 289 290 291 292 292 292 292 292 293 294 295 296
248 250 251 251 252 254 254 253 251 249 250 253 258 261 261 259 256 254 252 250 249 251 255 257 258 261 264 267 268 270 271 272 273 275 276 277 279 281 282 284 285 287 288 290 292 293 294 294 295 296 297 299 300 300 300 298 296 294 292 291 290 289 288 287 286 285 284 283 283 284 284 285 286 287 287 288 289 289 290 290 291 291 292 292 293
248 250 250 251 253 254 252 248 246 245 248 251 255 258 259 257 255 253 252 250 249 251 254 256 258 261 264 266 268 269 270 272 273 274 276 278 279 281 282 284 285 287 288 290 291 291 292 292 293 294 296 297 298 298 297 295 293 291 290 289 288 288 287 286 285 284 284 283 283 283 283 283 284 285 286 286 287 288 289 289 290 290 290 291 292
248 250 250 251 251 250 247 244 244 247 251 255 258 259 258 255 252 251 251 250 248 249 252 255 257 261 264 267 268 270 272 272 273 274 276 278 280 281 282 284 285 287 289 290 290 290 290 291 291 293 295 296 297 297 295 293 291 290 289 288 287 287 286 285 284 283 282 282 282 282 282 283 283 283 284 285 285 286 287 287 288 288 289 290 290
247 247 247 246 244 243 243 245 249 252 256 260 262 261 256 252 249 249 249 248 248 249 252 255 258 263 267 270 271 272 272 272 273 275 277 279 280 282 283 285 286 288 289 289 289 288 288 289 291 293 294 295 295 294 292 291 289 288 287 286 285 284 283 282 281 280 280 281 281 282 283 284 285 285 285 285 285 285 285 285 285 285 286 286 287
236 235 237 239 239 240 244 248 253 257 261 263 263 261 257 253 251 251 251 250 250 252 254 256 259 262 266 269 270 270 271 272 274 277 278 280 281 283 284 285 286 287 287 287 287 287 287 289 291 292 292 292 292 291 289 288 286 285 284 283 282 282 281 281 281 281 281 282 283 283 284 284 284 284 284 284 284 284 284 284 284 284 284 285 285
Height
5761 5761 5762 5764 5765 5767 5768 5770 5771 5772 5772 5773 5773 5774 5774 5775 5777 5779 5781 5782 5784 5785 5786 5787 5788 5790 5790 5790 5790 5790 5790 5790 5790 5789 5788 5787 5786 5785 5785 5784 5783 5782 5780 5778 5777 5776 5774 5772 5770 5768 5766 5763 5761 5759 5757 5755 5753 5751 5749 5747 5745 5743 5741 5739 5738 5735 5733 5731 5729 5727 5726 5723 5721 5720 5718 5716 5714 5713 5711 5710 5708 5706 5704 5703 5701
5758 5759 5761 5763 5765 5766 5767 5768 5769 5770 5770 5771 5771 5772 5773 5774 5775 5778 5780 5781 5783 5783 5784 5785 5787 5788 5788 5788 5788 5788 5788 5788 5788 5787 5786 5785 5784 5783 5782 5781 5780 5779 5777 5775 5774 5772 5771 5769 5767 5765 5763 5761 5758 5756 5754 5752 5750 5748 5746 5744 5742 5740 5738 5736 5734 5732 5730 5728 5726 5724 5722 5720 5718 5717 5715 5713 5711 5709 5708 5706 5705 5703 5702 5700 5698
5756 5757 5760 5762 5764 5765 5766 5767 5768 5768 5769 5769 5770 5771 5772 5773 5774 5777 5778 5780 5781 5781 5782 5784 5785 5786 5786 5786 5786 5786 5786 5786 5785 5785 5784 5783 5782 5781 5780 5779 5778 5776 5774 5773 5771 5769 5767 5765 5764 5762 5760 5758 5756 5754 5751 5749 5747 5745 5743 5741 5739 5737 5735 5733 5731 5729 5727 5725 5723 5721 5719 5717 5715 5713 5712 5710 5709 5707 5705 5703 5702 5701 5699 5698 5696
5755 5756 5758 5761 5763 5764 5765 5765 5766 5767 5767 5768 5769 5770 5771 5772 5774 5775 5777 5778 5778 5779 5781 5782 5783 5784 5784 5784 5784 5784 5784 5784 5783 5782 5781 5780 5779 5778 5778 5777 5775 5773 5771 5770 5768 5766 5764 5763 5761 5759 5757 5755 5753 5751 5749 5747 5744 5742 5740 5738 5736 5734 5732 5730 5728 5726 5724 5722 5720 5718 5716 5714 5712 5710 5709 5707 5705 5704 5702 5700 5698 5697 5696 5695 5693
5755 5756 5758 5759 5761 5762 5763 5764 5765 5765 5766 5767 5768 5769 5770 5772 5773 5774 5775 5776 5776 5778 5779 5781 5781 5781 5782 5782 5782 5782 5782 5781 5781 5780 5779 5778 5777 5776 5775 5774 5772 5770 5769 5767 5766 5764 5762 5760 5758 5756 5754 5752 5750 5748 5746 5744 5742 5740 5738 5736 5733 5731 5729 5727 5725 5723 5721 5719 5717 5715 5713 5711 5710 5708 5706 5704 5702 5701 5700 5698 5695 5694 5693 5691 5690
5755 5756 5757 5758 5759 5761 5762 5763 5763 5764 5765 5766 5767 5768 5769 5770 5771 5772 5773 5774 5775 5776 5778 5778 5779 5779 5780 5780 5780 5780 5779 5779 5778 5777 5776 5775 5774 5773 5772 5771 5769 5767 5766 5765 5763 5761 5759 5757 5755 5753 5751 5749 5747 5745 5743 5741 5739 5737 5735 5733 5731 5728 5726 5724 5722 5720 5718 5716 5714 5712 5710 5708 5707 5705 5703 5702 5699 5697 5695 5694 5692 5691 5689 5688 5686
5754 5755 5756 5757 5758 5759 5760 5761 5762 5762 5763 5764 5765 5766 5767 5768 5769 5769 5770 5772 5773 5774 5775 5776 5776 5777 5777 5777 5777 5777 5777 5776 5776 5775 5774 5773 5771 5770 5769 5768 5766 5765 5764 5762 5760 5758 5756 5754 5752 5750 5748 5747 5745 5743 5740 5738 5736 5735 5732 5730 5728 5726 5724 5722 5719 5717 5715 5713 5711 5709 5707 5705 5704 5702 5700 5699 5697 5695 5692 5691 5689 5687 5686 5684 5683
5753 5754 5755 5756 5757 5758 5758 5759 5760 5761 5762 5762 5764 5764 5765 5766 5767 5768 5769 5770 5771 5772 5773 5773 5774 5774 5775 5775 5775 5775 5774 5774 5773 5772 5771 5770 5769 5767 5766 5765 5764 5762 5761 5759 5757 5755 5753 5751 5749 5748 5746 5744 5742 5740 5738 5736 5734 5732 5729 5727 5725 5723 5721 5719 5716 5714 5712 5710 5708 5706 5704 5702 5700 5699 5697 5695 5694 5692 5690 5688 5686 5685 5683 5681 5679
5751 5752 5753 5754 5755 5756 5756 5757 5758 5759 5760 5761 5762 5763 5763 5764 5765 5766 5767 5768 5769 5770 5770 5771 5771 5772 5772 5772 5772 5772 5772 5771 5770 5769 5768 5767 5766 5765 5764 5763 5761 5759 5757 5755 5754 5752 5750 5748 5747 5745 5743 5741 5739 5737 5735 5733 5730 5728 5726 5724 5722 5720 5718 5716 5713 5711 5709 5707 5705 5703 5701 5699 5697 5695 5693 5691 5690 5688 5687 5685 5683 5682 5680 5679 5677
5749 5750 5751 5752 5753 5754 5754 5755 5756 5757 5758 5759 5760 5761 5762 5763 5764 5765 5766 5767 5767 5767 5768 5768 5769 5769 5770 5770 5770 5769 5769 5768 5767 5766 5765 5764 5763 5762 5761 5760 5758 5756 5754 5752 5751 5749 5747 5745 5744 5742 5740 5738 5736 5734 5732 5730 5727 5725 5722 5721 5719 5717 5714 5712 5710 5708 5706 5704 5702 5700 5698 5696 5694 5692 5690 5688 5686 5685 5683 5682 5680 5679 5677 5676 5674
5746 5748 5749 5750 5751 5752 5752 5753 5754 5755 5756 5757 5758 5760 5760 5761 5762 5763 5764 5764 5764 5765 5765 5766 5766 5767 5767 5767 5767 5766 5766 5765 5764 5763 5762 5761 5760 5759 5758 5757 5755 5754 5752 5750 5748 5746 5744 5742 5741 5739 5737 5736 5734 5732 5729 5727 5724 5721 5720 5718 5716 5713 5711 5709 5707 5705 5703 5701 5699 5697 5695 5693 5691 5689 5687 5685 5683 5681 5680 5678 5677 5675 5674 5672 5671
5744 5746 5747 5748 5748 5749 5750 5751 5752 5754 5754 5755 5756 5757 5758 5759 5760 5760 5761 5761 5762 5763 5763 5764 5764 5764 5764 5764 5764 5763 5763 5762 5761 5761 5760 5759 5758 5757 5755 5754 5752 5751 5749 5747 5745 5743 5742 5740 5738 5737 5735 5733 5731 5729 5726 5724 5721 5719 5717 5715 5713 5710 5708 5706 5704 5702 5700 5698 5695 5693 5691 5689 5687 5685 5683 5681 5679 5678 5676 5674 5673 5671 5670 5668 5667
5741 5743 5744 5745 5746 5747 5748 5749 5751 5752 5753 5753 5754 5754 5755 5756 5756 5757 5758 5759 5760 5760 5761 5761 5762 5762 5762 5761 5761 5761 5760 5759 5759 5758 5757 5756 5755 5754 5752 5751 5749 5748 5746 5744 5742 5741 5739 5738 5736 5734 5732 5730 5728 5726 5723 5721 5719 5716 5714 5712 5710 5708 5706 5704 5702 5699 5697 5695 5693 5691 5688 5686 5684 5682 5680 5678 5676 5674 5672 5671 5669 5667 5666 5664 5663
5738 5740 5742 5743 5743 5744 5745 5747 5749 5750 5751 5751 5752 5752 5753 5753 5754 5755 5756 5756 5757 5758 5758 5759 5759 5759 5759 5759 5758 5758 5757 5756 5756 5755 5754 5753 5752 5751 5749 5748 5746 5745 5743 5741 5740 5738 5737 5735 5733 5731 5729 5727 5725 5723 5721 5719 5716 5714 5711 5709 5707 5705 5703 5701 5699 5697 5694 5692 5690 5688 5685 5683 5681 5679 5677 5675 5673 5671 5669 5667 5665 5663 5662 5660 5659
5736 5738 5740 5741 5742 5742 5744 5745 5747 5748 5749 5749 5749 5750 5751 5751 5752 5752 5753 5754 5754 5755 5755 5755 5755 5756 5756 5756 5756 5755 5754 5753 5753 5752 5751 5750 5749 5747 5746 5745 5743 5742 5740 5739 5737 5736 5734 5732 5730 5728 5726 5724 5722 5720 5718 5716 5714 5711 5708 5706 5704 5703 5701 5698 5696 5694 5691 5689 5686 5684 5682 5680 5677 5675 5673 5671 5669 5667 5665 5663 5661 5660 5658 5656 5655
5734 5737 5739 5740 5741 5741 5742 5744 5745 5746 5746 5747 5747 5748 5748 5749 5750 5750 5751 5751 5751 5751 5752 5752 5753 5753 5754 5753 5753 5752 5751 5750 5750 5750 5749 5747 5746 5744 5743 5742 5741 5739 5738 5736 5735 5733 5731 5729 5727 5725 5723 5721 5719 5717 5715 5713 5711 5708 5706 5704 5702 5700 5698 5696 5693 5691 5688 5686 5683 5681 5678 5676 5674 5672 5669 5667 5665 5663 5661 5659 5657 5656 5654 5652 5651
5732 5735 5737 5738 5739 5740 5741 5742 5743 5744 5744 5744 5744 5745 5746 5747 5748 5748 5749 5749 5749 5749 5749 5750 5750 5751 5751 5750 5749 5749 5748 5748 5747 5747 5745 5744 5743 5742 5740 5739 5738 5736 5735 5733 5732 5730 5728 5726 5724 5723 5721 5719 5717 5715 5713 5710 5708 5706 5704 5702 5700 5697 5695 5693 5690 5688 5685 5683 5680 5678 5675 5673 5670 5668 5666 5664 5661 5659 5657 5655 5654 5652 5650 5648 5647
5730 5732 5734 5735 5737 5738 5739 5740 5741 5741 5741 5741 5741 5742 5743 5744 5745 5746 5746 5746 5746 5747 5747 5747 5748 5748 5748 5747 5746 5746 5745 5745 5744 5743 5742 5741 5740 5739 5738 5736 5735 5733 5732 5731 5729 5727 5726 5724 5722 5720 5718 5716 5714 5712 5710 5708 5706 5704 5702 5699 5697 5695 5692 5690 5687 5685 5682 5679 5677 5674 5671 5669 5666 5664 5662 5660 5658 5656 5654 5652 5650 5648 5646 5645 5643
5727 5729 5730 5732 5734 5736 5737 5737 5739 5739 5739 5739 5739 5739 5740 5742 5742 5743 5744 5744 5744 5745 5745 5745 5745 5745 5745 5744 5743 5743 5742 5742 5741 5740 5739 5738 5737 5736 5734 5733 5732 5731 5729 5728 5726 5725 5723 5721 5719 5718 5716 5714 5712 5710 5707 5705 5703 5701 5699 5697 5694 5691 5689 5686 5683 5681 5678 5675 5673 5670 5667 5665 5662 5660 5658 5655 5653 5651 5649 5647 5646 5644 5642 5641 5639
5723 5725 5728 5730 5732 5733 5733 5735 5736 5736 5737 5737 5738 5738 5739 5739 5740 5741 5741 5742 5742 5743 5743 5743 5743 5742 5742 5741 5740 5740 5740 5739 5738 5737 5736 5735 5734 5733 5732 5731 5729 5728 5727 5725 5723 5722 5720 5718 5717 5715 5713 5711 5709 5707 5705 5703 5701 5698 5696 5694 5691 5688 5685 5683 5680 5677 5674 5672 5669 5666 5664 5661 5659 5656 5653 5651 5649 5647 5645 5643 5641 5640 5638 5637 5635
5720 5723 5726 5728 5730 5730 5731 5732 5733 5733 5734 5735 5736 5736 5736 5736 5737 5739 5739 5740 5740 5740 5740 5740 5740 5739 5739 5738 5738 5737 5737 5736 5735 5734 5733 5732 5731 5730 5729 5728 5727 5725 5724 5722 5721 5719 5718 5716 5714 5713 5711 5709 5707 5705 5703 5700 5698 5696 5693 5690 5687 5685 5682 5679 5676 5674 5671 5669 5666 5663 5661 5658 5655 5653 5650 5647 5645 5643 5641 5639 5637 5636 5635 5633 5632
5717 5720 5723 5725 5727 5728 5729 5729 5730 5731 5732 5732 5733 5733 5733 5733 5735 5736 5737 5737 5737 5737 5737 5737 5737 5736 5736 5735 5735 5734 5734 5733 5731 5731 5730 5729 5728 5727 5726 5725 5724 5722 5721 5719 5718 5717 5715 5714 5712 5711 5709 5707 5705 5703 5700 5698 5695 5693 5690 5687 5684 5681 5679 5676 5673 5670 5668 5666 5663 5660 5657 5655 5652 5649 5646 5644 5642 5640 5638 5636 5634 5633 5631 5630 5629
5715 5717 5719 5721 5724 5725 5726 5727 5728 5729 5729 5730 5731 5731 5731 5732 5732 5733 5734 5734 5734 5734 5734 5734 5733 5733 5733 5732 5732 5731 5730 5729 5728 5728 5727 5726 5725 5724 5723 5722 5721 5720 5718 5717 5715 5714 5713 5712 5710 5708 5707 5705 5702 5700 5697 5695 5692 5689 5686 5684 5681 5678 5675 5673 5671 5668 5665 5662 5660 5657 5654 5651 5648 5646 5643 5641 5639 5637 5635 5633 5632 5631 5629 5628 5627
5712 5715 5716 5718 5720 5722 5724 5725 5725 5726 5727 5727 5728 5728 5729 5729 5730 5730 5731 5731 5731 5731 5731 5730 5729 5729 5729 5729 5729 5727 5727 5726 5725 5725 5724 5723 5722 5721 5720 5719 5718 5717 5715 5714 5713 5712 5711 5709 5708 5706 5704 5702 5700 5697 5695 5692 5689 5687 5684 5681 5678 5675 5672 5670 5668 5665 5662 5659 5656 5654 5651 5648 5646 5643 5641 5638 5636 5634 5633 5631 5630 5629 5627 5626 5625
5710 5712 5714 5715 5717 5719 5720 5721 5722 5723 5724 5724 5725 5725 5726 5726 5727 5727 5727 5727 5727 5727 5727 5726 5726 5726 5726 5726 5725 5724 5723 5723 5722 5721 5721 5720 5719 5718 5717 5716 5715 5714 5713 5712 5711 5709 5708 5707 5705 5703 5702 5699 5697 5694 5692 5689 5686 5684 5681 5678 5675 5672 5670 5667 5665 5663 5660 5657 5654 5651 5648 5646 5643 5641 5639 5636 5634 5632 5631 5629 5628 5627 5626 5625 5624
5707 5709 5711 5712 5714 5716 5717 5718 5720 5720 5721 5721 5721 5722 5723 5723 5723 5724 5724 5723 5723 5723 5723 5723 5723 5723 5723 5722 5721 5721 5720 5720 5719 5718 5718 5717 5716 5715 5714 5713 5712 5711 5710 5709 5708 5707 5706 5704 5702 5701 5699 5697 5694 5691 5689 5686 5684 5681 5678 5676 5673 5670 5667 5665 5663 5661 5658 5655 5652 5650 5647 5644 5642 5640 5637 5635 5633 5631 5629 5628 5627 5626 5625 5624 5623
5703 5706 5707 5709 5711 5713 5714 5715 5716 5717 5717 5718 5718 5719 5719 5720 5720 5720 5720 5720 5720 5720 5720 5720 5720 5720 5719 5718 5718 5718 5717 5716 5716 5715 5714 5714 5713 5712 5711 5710 5709 5708 5708 5707 5705 5704 5703 5701 5700 5698 5696 5694 5691 5688 5686 5683 5681 5678 5676 5673 5671 5668 5665 5663 5661 5658 5656 5653 5651 5648 5646 5643 5641 5639 5636 5634 5632 5630 5629 5627 5626 5625 5624 5623 5622
5700 5702 5704 5706 5708 5710 5711 5712 5713 5713 5714 5715 5715 5716 5716 5717 5717 5717 5717 5717 5717 5717 5717 5716 5716 5716 5715 5715 5714 5714 5713 5713 5712 5712 5711 5710 5710 5709 5708 5707 5706 5705 5705 5704 5703 5702 5700 5699 5697 5695 5693 5691 5688 5686 5683 5680 5678 5675 5673 5671 5669 5666 5664 5661 5659 5657 5654 5652 5649 5647 5645 5642 5640 5638 5635 5633 5631 5630 5628 5627 5625 5624 5623 5622 5621
5697 5699 5701 5703 5705 5706 5708 5709 5709 5710 5711 5711 5712 5712 5713 5714 5714 5714 5713 5713 5713 5713 5713 5713 5713 5712 5711 5711 5711 5711 5710 5710 5709 5709 5708 5707 5707 5706 5705 5704 5703 5703 5702 5701 5700 5699 5697 5696 5694 5692 5689 5687 5685 5683 5681 5678 5675 5673 5671 5669 5666 5664 5662 5660 5657 5655 5653 5651 5648 5646 5644 5641 5639 5637 5635 5633 5631 5629 5628 5627 5625 5624 5623 5622 5621
5695 5697 5699 5700 5702 5703 5704 5705 5706 5707 5707 5708 5708 5709 5709 5710 5710 5710 5709 5709 5709 5709 5709 5709 5709 5708 5708 5708 5708 5707 5707 5706 5706 5705 5705 5704 5704 5703 5702 5702 5701 5700 5699 5698 5697 5696 5694 5693 5691 5689 5686 5684 5682 5680 5678 5675 5673 5671 5669 5666 5664 5662 5660 5658 5656 5654 5651 5649 5647 5645 5643 5640 5638 5636 5634 5632 5631 5629 5628 5626 5625 5624 5623 5622 5621
5692 5694 5696 5697 5698 5700 5701 5702 5703 5703 5704 5704 5705 5705 5706 5706 5706 5706 5705 5706 5706 5706 5706 5705 5705 5705 5704 5704 5704 5704 5703 5703 5702 5702 5702 5701 5701 5700 5700 5699 5698 5697 5696 5695 5693 5692 5691 5689 5687 5686 5683 5681 5679 5677 5675 5673 5671 5669 5667 5664 5662 5660 5658 5656 5654 5652 5650 5648 5646 5644 5642 5639 5637 5635 5634 5632 5630 5629 5627 5626 5625 5624 5623 5622 5621
5690 5691 5692 5694 5695 5697 5698 5699 5700 5700 5700 5701 5702 5702 5702 5702 5702 5702 5702 5702 5702 5702 5702 5701 5701 5701 5701 5701 5701 5700 5700 5700 5699 5699 5699 5698 5698 5697 5697 5696 5695 5694 5693 5692 5690 5689 5687 5685 5684 5682 5680 5678 5676 5674 5672 5670 5668 5666 5664 5662 5660 5658 5656 5654 5652 5650 5648 5646 5645 5643 5641 5639 5637 5635 5633 5631 5630 5628 5627 5626 5625 5623 5622 5621 5620
5686 5688 5689 5691 5692 5694 5695 5695 5696 5697 5697 5698 5698 5698 5698 5698 5699 5698 5698 5698 5698 5698 5698 5698 5697 5697 5697 5697 5697 5697 5697 5696 5696 5696 5695 5695 5695 5694 5694 5693 5692 5691 5690 5689 5687 5685 5684 5682 5680 5679 5677 5675 5673 5671 5669 5667 5665 5664 5662 5660 5658 5656 5654 5652 5650 5648 5647 5645 5643 5642 5640 5638 5636 5634 5632 5631 5629 5628 5626 5625 5624 5623 5622 5621 5620
5683 5684 5686 5687 5689 5690 5691 5691 5692 5693 5694 5694 5694 5694 5694 5695 5695 5695 5694 5694 5694 5694 5694 5694 5694 5694 5694 5694 5694 5694 5694 5693 5693 5693 5692 5692 5692 5691 5691 5690 5689 5689 5687 5686 5684 5682 5681 5679 5677 5675 5673 5672 5670 5668 5666 5664 5663 5661 5659 5657 5655 5653 5651 5649 5648 5646 5645 5643 5642 5640 5639 5637 5635 5633 5632 5630 5629 5627 5626 5625 5623 5622 5621 5620 5619
5680 5681 5682 5684 5685 5686 5687 5688 5689 5690 5690 5691 5691 5691 5691 5691 5691 5691 5691 5690 5690 5690 5691 5691 5691 5691 5691 5691 5691 5691 5690 5690 5690 5690 5689 5689 5689 5688 5688 5687 5686 5685 5684 5683 5681 5679 5677 5676 5674 5672 5670 5668 5666 5665 5663 5661 5659 5658 5656 5654 5653 5651 5649 5647 5645 5644 5642 5641 5640 5639 5637 5636 5634 5632 5630 5629 5628 5627 5625 5624 5623 5622 5621 5620 5619
5677 5678 5679 5680 5681 5682 5683 5684 5686 5686 5687 5687 5687 5687 5687 5687 5687 5687 5687 5687 5687 5687 5687 5687 5687 5688 5687 5687 5687 5687 5687 5687 5687 5686 5686 5686 5685 5685 5684 5684 5683 5682 5680 5679 5677 5676 5674 5672 5671 5669 5667 5665 5663 5661 5659 5658 5656 5655 5653 5651 5649 5648 5646 5644 5643 5641 5640 5639 5638 5637 5636 5634 5633 5631 5629 5628 5626 5625 5624 5623 5621 5620 5620 5619 5618
5673 5675 5676 5677 5678 5679 5680 5681 5682 5682 5683 5683 5683 5684 5684 5684 5683 5683 5683 5683 5684 5684 5684 5684 5684 5684 5684 5684 5684 5684 5684 5684 5683 5683 5683 5683 5682 5682 5681 5680 5679 5678 5676 5675 5674 5672 5671 5669 5668 5666 5664 5662 5660 5658 5657 5655 5653 5651 5650 5648 5646 5645 5643 5642 5640 5639 5638 5637 5636 5635 5633 5632 5631 5629 5628 5627 5625 5624 5623 5621 5620 5619 5618 5617 5616
5670 5671 5672 5673 5674 5675 5676 5677 5678 5678 5679 5679 5680 5680 5680 5680 5679 5679 5680 5680 5680 5680 5680 5680 5680 5680 5680 5680 5680 5680 5680 5680 5680 5680 5679 5679 5679 5678 5677 5676 5675 5674 5673 5671 5670 5668 5667 5665 5664 5662 5661 5659 5657 5655 5654 5652 5650 5648 5647 5645 5643 5641 5640 5639 5638 5637 5636 5635 5634 5632 5631 5630 5629 5628 5626 5625 5624 5623 5622 5621 5619 5618 5617 5615 5614
5666 5667 5669 5670 5671 5672 5673 5673 5674 5674 5675 5675 5675 5676 5676 5675 5675 5676 5676 5677 5677 5677 5677 5677 5677 5677 5677 5677 5677 5677 5677 5676 5676 5676 5676 5675 5675 5675 5674 5672 5671 5670 5669 5667 5666 5665 5663 5662 5660 5659 5657 5656 5654 5652 5651 5649 5647 5645 5643 5642 5640 5638 5637 5636 5635 5634 5633 5632 5632 5630 5629 5628 5627 5626 5625 5623 5622 5621 5620 5619 5618 5617 5616 5615 5613
5662 5663 5664 5665 5666 5667 5668 5669 5670 5670 5670 5671 5671 5672 5671 5671 5672 5672 5673 5673 5673 5673 5673 5673 5673 5673 5674 5674 5674 5673 5673 5673 5672 5672 5672 5671 5671 5670 5669 5668 5667 5666 5665 5663 5662 5661 5660 5658 5657 5655 5654 5652 5650 5649 5647 5646 5644 5642 5640 5639 5637 5635 5634 5633 5632 5632 5631 5630 5629 5628 5627 5626 5625 5624 5623 5621 5620 5619 5618 5617 5616 5615 5614 5613 5612
5658 5659 5660 5661 5662 5663 5664 5665 5665 5666 5666 5666 5667 5667 5667 5667 5668 5669 5669 5669 5669 5669 5669 5669 5670 5670 5670 5670 5670 5669 5669 5668 5668 5668 5667 5667 5667 5666 5665 5664 5663 5662 5661 5660 5658 5657 5656 5654 5653 5652 5650 5648 5647 5645 5644 5642 5640 5639 5637 5636 5634 5632 5631 5630 5630 5629 5628 5627 5627 5626 5625 5624 5623 5622 5621 5619 5618 5617 5616 5615 5614 5613 5612 5611 5610
5654 5655 5655 5657 5658 5658 5660 5660 5661 5661 5661 5662 5662 5662 5662 5663 5664 5664 5664 5665 5665 5665 5665 5666 5666 5666 5666 5666 5665 5665 5665 5664 5664 5663 5663 5662 5662 5662 5661 5660 5659 5658 5657 5656 5655 5653 5652 5651 5649 5648 5646 5645 5643 5641 5640 5638 5637 5635 5634 5632 5631 5630 5628 5628 5627 5626 5626 5625 5624 5623 5622 5621 5620 5619 5618 5617 5616 5615 5614 5613 5612 5610 5609 5608 5607
5649 5650 5651 5652 5653 5654 5655 5656 5656 5656 5656 5656 5657 5657 5658 5658 5659 5660 5660 5660 5661 5661 5661 5661 5662 5662 5662 5661 5661 5661 5660 5660 5660 5659 5658 5658 5658 5657 5656 5655 5655 5654 5653 5652 5651 5650 5648 5647 5645 5644 5643 5641 5639 5638 5636 5635 5633 5632 5630 5629 5628 5627 5626 5625 5624 5624 5623 5622 5621 5620 5619 5618 5617 5616 5615 5614 5613 5612 5611 5610 5609 5608 5607 5606 5605
5645 5646 5646 5647 5648 5649 5650 5651 5651 5652 5652 5652 5652 5653 5653 5654 5655 5655 5656 5656 5656 5657 5657 5657 5658 5658 5657 5657 5657 5656 5656 5656 5655 5654 5654 5654 5654 5653 5652 5651 5651 5650 5649 5648 5647 5645 5644 5643 5641 5640 5638 5637 5636 5634 5633 5631 5629 5628 5627 5626 5625 5624 5623 5622 5621 5621 5620 5619 5618 5617 5616 5615 5614 5613 5612 5611 5610 5609 5608 5607 5606 5604 5603 5602 5601
5641 5641 5642 5642 5643 5644 5645 5646 5647 5648 5648 5648 5648 5649 5649 5650 5650 5651 5651 5652 5652 5652 5653 5653 5653 5653 5653 5652 5652 5652 5652 5651 5650 5650 5650 5650 5649 5648 5647 5647 5646 5645 5644 5643 5642 5641 5640 5639 5637 5636 5634 5633 5632 5630 5629 5627 5626 5625 5623 5622 5621 5621 5620 5619 5618 5617 5616 5616 5615 5614 5612 5611 5610 5609 5608 5607 5606 5605 5604 5603 5602 5601 5600 5599 5597
5636 5636 5637 5638 5639 5639 5641 5642 5643 5643 5644 5644 5644 5645 5645 5645 5645 5646 5647 5647 5648 5648 5649 5649 5649 5649 5648 5648 5648 5647 5647 5646 5646 5646 5645 5645 5644 5644 5643 5642 5642 5641 5640 5639 5638 5637 5636 5634 5633 5632 5631 5629 5628 5626 5624 5623 5622 5621 5620 5619 5618 5617 5616 5615 5614 5614 5613 5612 5611 5610 5609 5608 5607 5605 5604 5603 5602 5601 5600 5599 5598 5597 5596 5594 5593
5631 5632 5633 5634 5634 5635 5637 5638 5638 5639 5639 5640 5640 5641 5641 5641 5641 5642 5643 5643 5644 5644 5644 5644 5644 5644 5644 5643 5643 5643 5642 5642 5642 5641 5641 5640 5640 5639 5639 5638 5637 5637 5636 5635 5634 5633 5631 5630 5629 5628 5626 5625 5624 5622 5621 5619 5618 5617 5616 5615 5614 5613 5612 5611 5611 5610 5609 5608 5607 5606 5605 5604 5602 5601 5600 5599 5598 5597 5596 5594 5593 5592 5591 5590 5589
5627 5628 5629 5630 5631 5632 5632 5633 5634 5634 5635 5635 5636 5636 5637 5637 5637 5638 5639 5639 5639 5640 5640 5640 5640 5640 5639 5639 5638 5638 5638 5637 5637 5637 5636 5636 5635 5635 5634 5634 5633 5632 5631 5630 5629 5628 5627 5626 5624 5623 5622 5620 5619 5618 5617 5615 5614 5613 5612 5611 5610 5609 5608 5607 5606 5605 5604 5603 5602 5601 5600 5599 5598 5597 5596 5594 5593 5592 5591 5590 5588 5587 5586 5584 5583
5623 5624 5625 5626 5627 5628 5628 5629 5629 5630 5631 5631 5632 5632 5633 5633 5633 5634 5634 5635 5635 5635 5635 5636 5635 5635 5635 5634 5634 5633 5633 5633 5632 5632 5632 5632 5631 5630 5630 5629 5628 5628 5627 5626 5625 5623 5622 5621 5620 5618 5617 5616 5615 5613 5612 5611 5610 5609 5608 5606 5605 5604 5603 5602 5601 5600 5599 5598 5597 5596 5595 5594 5593 5592 5591 5590 5588 5587 5586 5584 5583 5582 5580 5579 5577
5619 5620 5621 5622 5623 5624 5625 5625 5626 5626 5627 5627 5627 5628 5628 5629 5629 5629 5630 5630 5631 5631 5631 5631 5631 5630 5630 5629 5629 5628 5628 5628 5628 5628 5628 5627 5626 5626 5625 5624 5623 5623 5622 5621 5620 5618 5617 5616 5615 5614 5613 5611 5610 5609 5608 5606 5605 5604 5603 5601 5600 5599 5598 5597 5596 5595 5594 5593 5592 5591 5590 5589 5588 5586 5585 5584 5582 5581 5580 5579 5577 5576 5574 5573 5571
5615 5616 5617 5618 5619 5620 5621 5621 5622 5622 5622 5623 5623 5623 5624 5624 5625 5625 5626 5626 5627 5627 5626 5626 5625 5625 5625 5624 5624 5624 5624 5624 5624 5624 5623 5622 5622 5621 5620 5619 5619 5618 5617 5616 5615 5613 5612 5611 5610 5609 5608 5606 5605 5604 5603 5601 5600 5598 5597 5596 5595 5594 5593 5592 5591 5589 5588 5587 5586 5585 5584 5583 5581 5580 5578 5577 5575 5574 5573 5571 5570 5569 5567 5566 5564